| time (UTC) | temp F | wind direction | speed MPH | gust MPH | rain 1hr in | rain 24hr in | rain mn in | humidity % | barometer mb |
| 20260509102342 | 76 | 270 | 0.0 | 0.0 | 0.00 | 0.00 | 0.00 | 23 | 1006.9 |
| 20260509101349 | 76 | 261 | 0.0 | 0.0 | 0.00 | 0.00 | 0.00 | 23 | 1007.0 |
| 20260509100339 | 77 | 257 | 0.0 | 0.0 | 0.00 | 0.00 | 0.00 | 23 | 1007.0 |
| 20260509095347 | 77 | 294 | 0.0 | 0.0 | 0.00 | 0.00 | 0.00 | 22 | 1006.9 |
| 20260509094334 | 77 | 338 | 0.0 | 0.0 | 0.00 | 0.00 | 0.00 | 22 | 1007.1 |
| 20260509093340 | 78 | 338 | 0.0 | 0.0 | 0.00 | 0.00 | 0.00 | 23 | 1007.1 |
| 20260509092347 | 78 | 338 | 0.0 | 0.0 | 0.00 | 0.00 | 0.00 | 23 | 1007.1 |
| 20260509091339 | 78 | 338 | 0.0 | 0.0 | 0.00 | 0.00 | 0.00 | 23 | 1007.1 |
| 20260509090404 | 79 | 338 | 0.0 | 0.0 | 0.00 | 0.00 | 0.00 | 21 | 1007.1 |
| 20260509085331 | 79 | 338 | 0.0 | 0.0 | 0.00 | 0.00 | 0.00 | 22 | 1007.1 |
| 20260509084339 | 80 | 338 | 0.0 | 0.0 | 0.00 | 0.00 | 0.00 | 22 | 1007.1 |
| 20260509083330 | 81 | 338 | 0.0 | 0.0 | 0.00 | 0.00 | 0.00 | 21 | 1007.0 |
| 20260509082357 | 82 | 338 | 0.0 | 0.0 | 0.00 | 0.00 | 0.00 | 21 | 1006.9 |
| 20260509081343 | 83 | 338 | 0.0 | 0.0 | 0.00 | 0.00 | 0.00 | 20 | 1006.8 |
| 20260509080330 | 84 | 338 | 0.0 | 0.0 | 0.00 | 0.00 | 0.00 | 19 | 1006.8 |
| 20260509075340 | 84 | 338 | 0.0 | 0.0 | 0.00 | 0.00 | 0.00 | 19 | 1006.9 |
| 20260509074327 | 85 | 340 | 0.0 | 0.0 | 0.00 | 0.00 | 0.00 | 18 | 1006.9 |
| 20260509073335 | 86 | 355 | 0.0 | 2.0 | 0.00 | 0.00 | 0.00 | 17 | 1006.8 |
| 20260509072343 | 86 | 284 | 0.0 | 1.0 | 0.00 | 0.00 | 0.00 | 16 | 1006.8 |
| 20260509071335 | 87 | 273 | 0.0 | 2.0 | 0.00 | 0.00 | 0.00 | 16 | 1006.7 |
| 20260509070342 | 87 | 259 | 0.0 | 5.0 | 0.00 | 0.00 | 0.00 | 16 | 1006.7 |
| 20260509065330 | 88 | 248 | 2.0 | 7.0 | 0.00 | 0.00 | 0.00 | 15 | 1006.7 |
| 20260509064337 | 88 | 252 | 1.0 | 8.0 | 0.00 | 0.00 | 0.00 | 15 | 1006.6 |
| 20260509063348 | 88 | 252 | 4.0 | 9.0 | 0.00 | 0.00 | 0.00 | 15 | 1006.6 |
| 20260509062334 | 89 | 207 | 1.0 | 7.0 | 0.00 | 0.00 | 0.00 | 15 | 1006.6 |
| 20260509061400 | 89 | 286 | 2.0 | 8.0 | 0.00 | 0.00 | 0.00 | 15 | 1006.5 |
| 20260509060345 | 89 | 207 | 1.0 | 9.0 | 0.00 | 0.00 | 0.00 | 15 | 1006.6 |
| 20260509055356 | 89 | 238 | 1.0 | 13.0 | 0.00 | 0.00 | 0.00 | 15 | 1006.5 |
| 20260509054341 | 89 | 237 | 3.0 | 10.0 | 0.00 | 0.00 | 0.00 | 15 | 1006.5 |
| 20260509053328 | 90 | 196 | 0.0 | 7.0 | 0.00 | 0.00 | 0.00 | 16 | 1006.5 |
| 20260509052336 | 90 | 215 | 0.0 | 7.0 | 0.00 | 0.00 | 0.00 | 15 | 1006.6 |
| 20260509051326 | 90 | 290 | 2.0 | 8.0 | 0.00 | 0.00 | 0.00 | 15 | 1006.6 |
| 20260509050334 | 91 | 238 | 0.0 | 6.0 | 0.00 | 0.00 | 0.00 | 15 | 1006.5 |
| 20260509045341 | 91 | 265 | 0.0 | 8.0 | 0.00 | 0.00 | 0.00 | 15 | 1006.5 |
| 20260509044328 | 91 | 208 | 3.0 | 9.0 | 0.00 | 0.00 | 0.00 | 15 | 1006.3 |
| 20260509043359 | 91 | 265 | 3.0 | 9.0 | 0.00 | 0.00 | 0.00 | 15 | 1006.2 |
| 20260509042343 | 92 | 261 | 2.0 | 7.0 | 0.00 | 0.00 | 0.00 | 15 | 1006.1 |
| 20260509041330 | 92 | 248 | 1.0 | 5.0 | 0.00 | 0.00 | 0.00 | 15 | 1006.1 |
| 20260509040337 | 93 | 221 | 3.0 | 8.0 | 0.00 | 0.00 | 0.00 | 15 | 1006.0 |
| 20260509035405 | 93 | 216 | 2.0 | 6.0 | 0.00 | 0.00 | 0.00 | 15 | 1005.8 |
| 20260509034335 | 94 | 255 | 2.0 | 9.0 | 0.00 | 0.00 | 0.00 | 15 | 1005.7 |
| 20260509033402 | 94 | 298 | 5.0 | 11.0 | 0.00 | 0.00 | 0.00 | 14 | 1005.6 |
| 20260509032329 | 94 | 224 | 2.0 | 7.0 | 0.00 | 0.00 | 0.00 | 14 | 1005.5 |
| 20260509031336 | 95 | 271 | 0.0 | 11.0 | 0.00 | 0.00 | 0.00 | 14 | 1005.4 |
| 20260509030328 | 95 | 271 | 4.0 | 10.0 | 0.00 | 0.00 | 0.00 | 14 | 1005.3 |
| 20260509025335 | 96 | 257 | 1.0 | 8.0 | 0.00 | 0.00 | 0.00 | 13 | 1005.1 |
| 20260509024343 | 96 | 249 | 4.0 | 11.0 | 0.00 | 0.00 | 0.00 | 13 | 1004.9 |
| 20260509023330 | 96 | 249 | 1.0 | 7.0 | 0.00 | 0.00 | 0.00 | 13 | 1004.8 |
| 20260509022401 | 97 | 267 | 4.0 | 9.0 | 0.00 | 0.00 | 0.00 | 12 | 1004.7 |
| 20260509021346 | 97 | 247 | 3.0 | 11.0 | 0.00 | 0.00 | 0.00 | 12 | 1004.6 |
| 20260509020334 | 98 | 281 | 5.0 | 11.0 | 0.00 | 0.00 | 0.00 | 12 | 1004.6 |
| 20260509015340 | 98 | 294 | 2.0 | 10.0 | 0.00 | 0.00 | 0.00 | 12 | 1004.5 |
| 20260509014332 | 99 | 267 | 2.0 | 10.0 | 0.00 | 0.00 | 0.00 | 11 | 1004.5 |
| 20260509013339 | 99 | 175 | 3.0 | 10.0 | 0.00 | 0.00 | 0.00 | 11 | 1004.5 |
| 20260509012406 | 99 | 237 | 6.0 | 11.0 | 0.00 | 0.00 | 0.00 | 11 | 1004.5 |
| 20260509011333 | 100 | 197 | 1.0 | 12.0 | 0.00 | 0.00 | 0.00 | 11 | 1004.6 |
| 20260509010405 | 100 | 265 | 5.0 | 13.0 | 0.00 | 0.00 | 0.00 | 11 | 1004.6 |
| 20260509005331 | 100 | 192 | 0.0 | 10.0 | 0.00 | 0.00 | 0.00 | 11 | 1004.7 |
| 20260509004339 | 100 | 255 | 7.0 | 13.0 | 0.00 | 0.00 | 0.00 | 11 | 1004.8 |
| 20260509003327 | 100 | 278 | 5.0 | 10.0 | 0.00 | 0.00 | 0.00 | 11 | 1004.8 |
| 20260509002338 | 100 | 298 | 5.0 | 12.0 | 0.00 | 0.00 | 0.00 | 11 | 1004.9 |
| 20260509001405 | 101 | 252 | 6.0 | 11.0 | 0.00 | 0.00 | 0.00 | 11 | 1005.0 |
| 20260509000352 | 100 | 228 | 3.0 | 13.0 | 0.00 | 0.00 | 0.00 | 11 | 1005.0 |
| 20260508235338 | 100 | 261 | 3.0 | 13.0 | 0.00 | 0.00 | 0.00 | 12 | 1005.0 |
| 20260508234329 | 100 | 281 | 3.0 | 12.0 | 0.00 | 0.00 | 0.00 | 12 | 1005.1 |
| 20260508233336 | 100 | 240 | 7.0 | 15.0 | 0.00 | 0.00 | 0.00 | 12 | 1005.4 |
| 20260508232343 | 100 | 205 | 6.0 | 14.0 | 0.00 | 0.00 | 0.00 | 12 | 1005.4 |
| 20260508231330 | 100 | 250 | 5.0 | 12.0 | 0.00 | 0.00 | 0.00 | 13 | 1005.5 |
| 20260508230356 | 100 | 269 | 4.0 | 11.0 | 0.00 | 0.00 | 0.00 | 13 | 1005.6 |
| 20260508225407 | 99 | 269 | 8.0 | 13.0 | 0.00 | 0.00 | 0.00 | 13 | 1005.6 |
| 20260508224352 | 100 | 259 | 8.0 | 11.0 | 0.00 | 0.00 | 0.00 | 13 | 1005.9 |
| 20260508223338 | 99 | 289 | 4.0 | 12.0 | 0.00 | 0.00 | 0.00 | 13 | 1006.1 |
| 20260508222345 | 99 | 257 | 5.0 | 11.0 | 0.00 | 0.00 | 0.00 | 14 | 1006.3 |
| 20260508221336 | 98 | 332 | 5.0 | 14.0 | 0.00 | 0.00 | 0.00 | 13 | 1006.5 |
| 20260508220343 | 98 | 276 | 5.0 | 12.0 | 0.00 | 0.00 | 0.00 | 13 | 1006.7 |
| 20260508215329 | 99 | 284 | 8.0 | 17.0 | 0.00 | 0.00 | 0.00 | 13 | 1006.9 |
| 20260508214337 | 99 | 261 | 4.0 | 13.0 | 0.00 | 0.00 | 0.00 | 13 | 1007.1 |
| 20260508213327 | 99 | 256 | 5.0 | 12.0 | 0.00 | 0.00 | 0.00 | 13 | 1007.2 |
| 20260508212335 | 98 | 263 | 4.0 | 10.0 | 0.00 | 0.00 | 0.00 | 14 | 1007.4 |
| 20260508211401 | 98 | 306 | 2.0 | 12.0 | 0.00 | 0.00 | 0.00 | 14 | 1007.6 |
| 20260508210327 | 97 | 273 | 3.0 | 11.0 | 0.00 | 0.00 | 0.00 | 14 | 1007.8 |
| 20260508205340 | 97 | 305 | 3.0 | 12.0 | 0.00 | 0.00 | 0.00 | 15 | 1007.9 |
| 20260508204346 | 96 | 226 | 5.0 | 10.0 | 0.00 | 0.00 | 0.00 | 15 | 1008.2 |
| 20260508203332 | 96 | 250 | 2.0 | 9.0 | 0.00 | 0.00 | 0.00 | 15 | 1008.3 |
| 20260508202339 | 96 | 280 | 4.0 | 12.0 | 0.00 | 0.00 | 0.00 | 14 | 1008.4 |
| 20260508201331 | 96 | 240 | 6.0 | 11.0 | 0.00 | 0.00 | 0.00 | 14 | 1008.6 |
| 20260508200336 | 95 | 228 | 3.0 | 12.0 | 0.00 | 0.00 | 0.00 | 15 | 1008.7 |
| 20260508195343 | 94 | 274 | 3.0 | 8.0 | 0.00 | 0.00 | 0.00 | 14 | 1008.8 |
| 20260508194330 | 94 | 217 | 3.0 | 7.0 | 0.00 | 0.00 | 0.00 | 14 | 1008.8 |
| 20260508193342 | 94 | 200 | 1.0 | 5.0 | 0.00 | 0.00 | 0.00 | 16 | 1009.0 |
| 20260508192329 | 94 | 288 | 1.0 | 7.0 | 0.00 | 0.00 | 0.00 | 15 | 1009.2 |
| 20260508191335 | 93 | 243 | 0.0 | 10.0 | 0.00 | 0.00 | 0.00 | 16 | 1009.5 |
| 20260508190342 | 93 | 211 | 2.0 | 8.0 | 0.00 | 0.00 | 0.00 | 16 | 1009.7 |
| 20260508185333 | 93 | 115 | 0.0 | 1.0 | 0.00 | 0.00 | 0.00 | 15 | 1009.8 |
| 20260508184340 | 92 | 323 | 1.0 | 10.0 | 0.00 | 0.00 | 0.00 | 16 | 1009.9 |
| 20260508183327 | 92 | 130 | 0.0 | 5.0 | 0.00 | 0.00 | 0.00 | 17 | 1010.1 |
| 20260508182334 | 92 | 105 | 0.0 | 1.0 | 0.00 | 0.00 | 0.00 | 16 | 1010.1 |
| 20260508181345 | 92 | 96 | 0.0 | 0.0 | 0.00 | 0.00 | 0.00 | 16 | 1010.3 |
| 20260508180333 | 91 | 188 | 0.0 | 0.0 | 0.00 | 0.00 | 0.00 | 17 | 1010.4 |
| 20260508175340 | 91 | 207 | 0.0 | 0.0 | 0.00 | 0.00 | 0.00 | 18 | 1010.5 |
| 20260508174328 | 90 | 215 | 0.0 | 0.0 | 0.00 | 0.00 | 0.00 | 18 | 1010.5 |
| 20260508173339 | 90 | 319 | 0.0 | 0.0 | 0.00 | 0.00 | 0.00 | 18 | 1010.7 |
| 20260508172327 | 89 | 153 | 0.0 | 0.0 | 0.00 | 0.00 | 0.00 | 19 | 1010.7 |
| 20260508171331 | 88 | 96 | 0.0 | 2.0 | 0.00 | 0.00 | 0.00 | 19 | 1010.8 |
| 20260508170359 | 88 | 31 | 0.0 | 0.0 | 0.00 | 0.00 | 0.00 | 19 | 1010.9 |
| 20260508165328 | 87 | 10 | 0.0 | 0.0 | 0.00 | 0.00 | 0.00 | 20 | 1010.9 |
| 20260508164336 | 86 | 46 | 0.0 | 0.0 | 0.00 | 0.00 | 0.00 | 20 | 1011.0 |
| 20260508163345 | 86 | 196 | 0.0 | 1.0 | 0.00 | 0.00 | 0.00 | 21 | 1010.9 |
| 20260508162352 | 85 | 226 | 0.0 | 0.0 | 0.00 | 0.00 | 0.00 | 22 | 1011.0 |
| 20260508161358 | 84 | 181 | 0.0 | 0.0 | 0.00 | 0.00 | 0.00 | 22 | 1011.0 |
| 20260508160346 | 83 | 351 | 0.0 | 0.0 | 0.00 | 0.00 | 0.00 | 22 | 1011.1 |
| 20260508155333 | 83 | 168 | 0.0 | 0.0 | 0.00 | 0.00 | 0.00 | 23 | 1011.1 |
| 20260508154400 | 82 | 175 | 0.0 | 2.0 | 0.00 | 0.00 | 0.00 | 24 | 1011.1 |
| 20260508153327 | 81 | 49 | 0.0 | 1.0 | 0.00 | 0.00 | 0.00 | 24 | 1011.1 |
| 20260508152358 | 80 | 73 | 0.0 | 4.0 | 0.00 | 0.00 | 0.00 | 26 | 1011.1 |
| 20260508151344 | 79 | 68 | 3.0 | 8.0 | 0.00 | 0.00 | 0.00 | 26 | 1011.2 |
| 20260508150332 | 79 | 86 | 4.0 | 8.0 | 0.00 | 0.00 | 0.00 | 26 | 1011.1 |
| 20260508145339 | 78 | 74 | 2.0 | 8.0 | 0.00 | 0.00 | 0.00 | 26 | 1011.1 |
| 20260508144330 | 77 | 88 | 2.0 | 7.0 | 0.00 | 0.00 | 0.00 | 27 | 1011.1 |
| 20260508143358 | 76 | 70 | 1.0 | 6.0 | 0.00 | 0.00 | 0.00 | 30 | 1011.0 |
| 20260508142404 | 75 | 82 | 3.0 | 8.0 | 0.00 | 0.00 | 0.00 | 30 | 1011.1 |
| 20260508141331 | 74 | 113 | 2.0 | 6.0 | 0.00 | 0.00 | 0.00 | 31 | 1010.9 |
| 20260508140339 | 74 | 66 | 0.0 | 4.0 | 0.00 | 0.00 | 0.00 | 33 | 1010.9 |
| 20260508135330 | 73 | 75 | 1.0 | 6.0 | 0.00 | 0.00 | 0.00 | 33 | 1010.8 |
| 20260508134358 | 72 | 74 | 1.0 | 5.0 | 0.00 | 0.00 | 0.00 | 33 | 1010.8 |
| 20260508133345 | 71 | 71 | 2.0 | 6.0 | 0.00 | 0.00 | 0.00 | 33 | 1010.7 |
| 20260508132332 | 70 | 74 | 0.0 | 6.0 | 0.00 | 0.00 | 0.00 | 34 | 1010.4 |
| 20260508131344 | 70 | 52 | 1.0 | 6.0 | 0.00 | 0.00 | 0.00 | 34 | 1010.3 |
| 20260508130331 | 69 | 64 | 0.0 | 0.0 | 0.00 | 0.00 | 0.00 | 34 | 1010.1 |
| 20260508125338 | 70 | 78 | 0.0 | 0.0 | 0.00 | 0.00 | 0.00 | 33 | 1009.9 |
| 20260508124406 | 70 | 67 | 2.0 | 5.0 | 0.00 | 0.00 | 0.00 | 33 | 1009.8 |
| 20260508123336 | 70 | 62 | 0.0 | 5.0 | 0.00 | 0.00 | 0.00 | 33 | 1009.8 |
| 20260508122344 | 70 | 74 | 0.0 | 4.0 | 0.00 | 0.00 | 0.00 | 33 | 1009.6 |
| 20260508121332 | 70 | 112 | 0.0 | 4.0 | 0.00 | 0.00 | 0.00 | 32 | 1009.5 |
| 20260508120359 | 70 | 75 | 1.0 | 5.0 | 0.00 | 0.00 | 0.00 | 31 | 1009.4 |
| 20260508115330 | 70 | 71 | 0.0 | 3.0 | 0.00 | 0.00 | 0.00 | 31 | 1009.3 |
| 20260508114336 | 70 | 65 | 0.0 | 4.0 | 0.00 | 0.00 | 0.00 | 30 | 1009.4 |
| 20260508113403 | 70 | 90 | 0.0 | 5.0 | 0.00 | 0.00 | 0.00 | 30 | 1009.2 |
| 20260508112331 | 71 | 55 | 0.0 | 7.0 | 0.00 | 0.00 | 0.00 | 29 | 1009.3 |
| 20260508111402 | 71 | 80 | 0.0 | 6.0 | 0.00 | 0.00 | 0.00 | 28 | 1009.3 |
| 20260508110328 | 71 | 81 | 0.0 | 4.0 | 0.00 | 0.00 | 0.00 | 27 | 1009.3 |
| 20260508105335 | 71 | 78 | 0.0 | 2.0 | 0.00 | 0.00 | 0.00 | 26 | 1009.2 |
| 20260508104341 | 72 | 85 | 0.0 | 4.0 | 0.00 | 0.00 | 0.00 | 25 | 1009.2 |
| 20260508103332 | 72 | 81 | 1.0 | 4.0 | 0.00 | 0.00 | 0.00 | 24 | 1009.1 |